Weather History for Quantico, VA

Change the Weather History Date:

Wednesday, November 14, 2012

  Actual Average Record
Temperature  
Mean Temperature 40 °F -  
Max Temperature 46 °F 54 °F 77 °F (1999)
Min Temperature 33 °F 36 °F 26 °F (2013)
Degree Days  
Heating Degree Days 26    
Moisture  
Dew Point 27 °F    
Average Humidity 61    
Maximum Humidity 82    
Minimum Humidity 46    
Precipitation  
Precipitation 0.00 in - - ()
Sea Level Pressure  
Sea Level Pressure 30.51 in    
Wind  
Wind Speed 9 mph (North)    
Max Wind Speed 14 mph    
Max Gust Speed 21 mph    
Visibility 10 miles    
Events      
Averages and records for this station are not official NWS values.
T = Trace of Precipitation, MM = Missing Value Source: NWS Daily Summary

Daily Weather History Graph

Daily Weather History Graph

Search for Another Location

Airport:

Trip Planner

Search our weather history database for the weather conditions in past years. The results will help you decide how hot, cold, wet, or windy it might be!

Date:

Astronomy

Nov. 14, 2012 Rise Set
Actual Time 6:50 AM EST 4:56 PM EST
Civil Twilight 6:22 AM EST 5:24 PM EST
Nautical Twilight 5:50 AM EST 5:56 PM EST
Astronomical Twilight 5:18 AM EST 6:28 PM EST
Moon 7:36 AM EST (11/14) 5:44 PM EST (11/14)
Length of Visible Light 11h 02m
Length of Day
10h 06m
New Moon, 1% of the Moon is Illuminated
Nov 14
New Moon
Nov 20
First Quarter
Nov 28
Full
Dec 6
Last Quarter
Dec 13
New

Hourly Weather History & Observations

Time (EST) Temp. Windchill Dew Point Humidity Pressure Visibility Wind Dir Wind Speed Gust Speed Precip Events Conditions
12:56 AM 37.9 °F 29.6 °F 23.0 °F 55% 30.51 in 10.0 mi North 13.8 mph - N/A   Clear
1:56 AM 37.0 °F 29.8 °F 23.0 °F 57% 30.52 in 10.0 mi North 10.4 mph - N/A   Clear
2:56 AM 37.0 °F 29.3 °F 24.1 °F 59% 30.52 in 10.0 mi North 11.5 mph - N/A   Clear
3:56 AM 36.0 °F 29.0 °F 24.1 °F 62% 30.51 in 10.0 mi North 9.2 mph - N/A   Clear
4:56 AM 36.0 °F 30.3 °F 25.0 °F 64% 30.53 in 10.0 mi North 6.9 mph - N/A   Clear
5:56 AM 36.0 °F 31.1 °F 25.0 °F 64% 30.54 in 10.0 mi NNE 5.8 mph - N/A   Scattered Clouds
6:56 AM 33.1 °F 30.0 °F 25.0 °F 72% 30.56 in 10.0 mi North 3.5 mph - N/A   Scattered Clouds
7:56 AM 36.0 °F 29.0 °F 26.1 °F 67% 30.57 in 10.0 mi North 9.2 mph - N/A   Partly Cloudy
8:56 AM 41.0 °F 34.7 °F 27.0 °F 57% 30.57 in 10.0 mi NE 10.4 mph - N/A   Partly Cloudy
9:56 AM 43.0 °F 36.8 °F 28.0 °F 56% 30.57 in 10.0 mi NE 11.5 mph 20.7 mph N/A   Scattered Clouds
10:56 AM 44.1 °F 37.7 °F 26.1 °F 49% 30.56 in 10.0 mi NE 12.7 mph - N/A   Scattered Clouds
11:56 AM 45.0 °F 39.7 °F 26.1 °F 48% 30.54 in 10.0 mi ENE 10.4 mph - N/A   Scattered Clouds
12:56 PM 46.9 °F - 28.0 °F 48% 30.51 in 10.0 mi ENE 10.4 mph - N/A   Partly Cloudy
1:56 PM 46.9 °F - 28.0 °F 48% 30.49 in 10.0 mi ENE 10.4 mph - N/A   Mostly Cloudy
2:56 PM 46.9 °F - 28.0 °F 48% 30.47 in 10.0 mi ENE 9.2 mph - N/A   Clear
3:56 PM 46.9 °F - 27.0 °F 46% 30.48 in 10.0 mi NE 5.8 mph - N/A   Clear
4:56 PM 45.0 °F 43.5 °F 26.1 °F 48% 30.48 in 10.0 mi North 3.5 mph - N/A   Clear
5:56 PM 43.0 °F - 28.9 °F 58% 30.48 in 10.0 mi Calm Calm - N/A   Clear
6:56 PM 39.9 °F - 30.0 °F 68% 30.48 in 10.0 mi Calm Calm - N/A   Clear
7:56 PM 37.9 °F 33.5 °F 30.0 °F 73% 30.48 in 10.0 mi WNW 5.8 mph - N/A   Clear
8:56 PM 36.0 °F 29.6 °F 28.9 °F 76% 30.49 in 10.0 mi NW 8.1 mph - N/A   Clear
9:56 PM 35.1 °F 28.6 °F 28.0 °F 76% 30.48 in 10.0 mi NW 8.1 mph - N/A   Clear
10:56 PM 34.0 °F 28.0 °F 28.9 °F 82% 30.47 in 10.0 mi NW 6.9 mph - N/A   Clear
11:56 PM 34.0 °F 28.0 °F 28.9 °F 82% 30.47 in 10.0 mi NW 6.9 mph - N/A   Clear